Regional Weather Roundup
Issued by NWS

Home | Current Version | Previous Version | Graphics & Text | Print | Product List | Glossary Off
Versions: 1 2 3 4 5 6 7 8 9 10 11 12 13 14 15 16 17 18 19 20 21 22 23 24 25 26 27 28 29 30 31 32 33 34 35 36 37 38 39 40 41 42 43 44 45 46 47 48 49 50

000
ASUS43 KLOT 040000
RWRIL

ILLINOIS REGIONAL WEATHER ROUNDUP
NATIONAL WEATHER SERVICE CHICAGO/ROMEOVILLE IL
700 PM CDT SUN MAY 03 2015

NOTE: "FAIR" INDICATES FEW OR NO CLOUDS BELOW 12,000 FEET WITH NO
SIGNIFICANT WEATHER AND/OR OBSTRUCTIONS TO VISIBILITY.

* THESE STATIONS ARE NOT UNDER NWS QUALITY CONTROL. THEY ALSO MAY NOT
  REPORT WEATHER SUCH AS PRECIPITATION OR FOG.

ILZ001-002-007-009-015-016-024-040100-
NORTHWEST ILLINOIS

CITY           SKY/WX    TMP DP  RH WIND       PRES   REMARKS
MOLINE         PTSUNNY   81  55  40 S9        29.83F HX  81
6HR MIN TEMP:  75; 6HR MAX TEMP:  83;

STERLING*      CLEAR     68  61  77 E13       29.88S
$$

ILZ003-004-008-010-011-017-018-040100-
NORTH CENTRAL ILLINOIS

CITY           SKY/WX    TMP DP  RH WIND       PRES   REMARKS
ROCKFORD       PTCLDY    64  58  80 SE12      29.90F
6HR MIN TEMP:  61; 6HR MAX TEMP:  66; 6HR PCP:  0.37;

$$

ILZ005-006-012>014-019>023-040100-
NORTHEAST ILLINOIS

CITY           SKY/WX    TMP DP  RH WIND       PRES   REMARKS
CHICAGO-OHARE  RAIN      63  59  87 NW12      29.96R FOG
6HR MIN TEMP:  63; 6HR MAX TEMP:  78; 6HR PCP:  0.10;

CHICAGO-MIDWAY LGT RAIN  69  57  65 NW12      29.95R
6HR MIN TEMP:  69; 6HR MAX TEMP:  82; 6HR PCP:  0.02;

AURORA         TSTM      64  57  78 NE13      29.92S
6HR MIN TEMP:  63; 6HR MAX TEMP:  81; 6HR PCP:  0.09;

WAUKEGAN       LGT RAIN  61  59  93 VRB3      29.95R FOG
6HR MIN TEMP:  61; 6HR MAX TEMP:  78; 6HR PCP:  0.20;

DUPAGE AIRPORT TSTM      61  59  93 N7        29.95R FOG
6HR MIN TEMP:  61; 6HR MAX TEMP:  77; 6HR PCP:  0.16;

WHEELING       RAIN      62  59  90 N3        29.97R FOG
6HR MIN TEMP:  62; 6HR MAX TEMP:  78; 6HR PCP:  0.15;

NORTHERLY ISL    N/A     74  50  42 W13         N/A
$$

LMZ740>746-040100-
SOUTHERN LAKE MICHIGAN

STATION/POSITION SKY/WX   TEMP    WIND        PRES    VSBY  WAVE
                          AIR SEA DIR/SP/G                  HT/PER
                          (F)     (DEG/KT/KT) (MB)    (MI)  (FT/S)
HARRISON CRIB              77     210/ 12/ 15   N/A
BURNHAM HARBOR             79     190/  9/ 14   N/A
CALUMET HARBOR             78     180/  8/ 14   N/A
BURNS HARBOR               77     220/ 19/ 22 1013.9R
MICHIGAN CITY              78     160/  9/ 13   N/A
MICHIGAN CITY 6N           66 51  190/  8/ 10   N/A           1/ 2
ST. JOSEPH                 67 51  210/  6/  8   N/A           1
$$

ILZ025>027-034>036-040-047-049-050-058-095>099-040100-
WEST-CENTRAL ILLINOIS

CITY           SKY/WX    TMP DP  RH WIND       PRES   REMARKS
QUINCY         PTSUNNY   77  53  43 S10       29.88S
$$

ILZ028>032-037-038-041>044-048-051>054-059>061-040100-
CENTRAL ILLINOIS

CITY           SKY/WX    TMP DP  RH WIND       PRES   REMARKS
DECATUR        CLEAR     77  47  34 S17       29.96R
PEORIA         CLEAR     82  51  34 SW13      29.89R HX  81
6HR MIN TEMP:  81; 6HR MAX TEMP:  86;

SPRINGFIELD    CLEAR     80  49  33 S20       29.92S
6HR MIN TEMP:  80; 6HR MAX TEMP:  85;

TAYLORVILLE    NOT AVBL
$$

ILZ033-039-045-046-055>057-062-063-040100-
EAST-CENTRAL ILLINOIS

CITY           SKY/WX    TMP DP  RH WIND       PRES   REMARKS
CHAMPAIGN      PTCLDY    79  44  28 S20G28    29.97R
MATTOON        CLEAR     76  46  34 S10       29.97S
$$

ILZ079-100>102-040100-
SOUTHWEST ILLINOIS

CITY           SKY/WX    TMP DP  RH WIND       PRES   REMARKS
ALTON          MOCLDY    77  36  22 S14       29.95R
BELLEVILLE     MOCLDY    76  51  41 S8        29.94F
CAHOKIA*       MOCLDY    79  48  33 S9        29.94S
$$

ILZ064>066-069>071-074>076-080>082-084>086-088>090-092>094-040100-
SOUTH-CENTRAL ILLINOIS

CITY           SKY/WX    TMP DP  RH WIND       PRES   REMARKS
CARBONDALE     PTCLDY    75  47  36 S9        30.00S
6HR MIN TEMP:  75; 6HR MAX TEMP:  80;

MT. VERNON     PTCLDY   N/A N/A N/A S10       30.01S
$$

ILZ067-068-072-073-078-083-087-091-040100-
SOUTHEAST ILLINOIS

CITY           SKY/WX    TMP DP  RH WIND       PRES   REMARKS
LAWRENCEVILLE  CLEAR     76  47  35 S13       30.02R
$$

ABBREVIATIONS USED IN REMARKS
   TC - TEMPERATURE IN CELSIUS
  WCI - WIND CHILL INDEX
   HX - HEAT INDEX
  VSB - VISIBILITY
$$




USA.gov is the U.S. government's official web portal to all federal, state and local government web resources and services.